Hourly Weather Ludenscheid

Today, 15 May, Saturday

Time Temperature Precipitation Wind Pressure Humidity
00:00 +7°C° 0 mm 1 mps 719 mmHg 95%
01:00 +6°C° 0 mm 1 mps 719 mmHg 97%
02:00 +6°C° 0.1 mm 1 mps 719 mmHg 97%
03:00 +6°C° 0.1 mm 1 mps 719 mmHg 98%
04:00 +5°C° 0.1 mm 2 mps 718 mmHg 98%
05:00 +5°C° 0.1 mm 2 mps 718 mmHg 97%
06:00 +6°C° 0.1 mm 2 mps 718 mmHg 96%
07:00 +7°C° 0.1 mm 2 mps 718 mmHg 95%
08:00 +7°C° 0.1 mm 3 mps 718 mmHg 93%
09:00 +8°C° 0.1 mm 3 mps 718 mmHg 91%
10:00 +8°C° 0.1 mm 3 mps 718 mmHg 88%
11:00 +9°C° 0.5 mm 3 mps 718 mmHg 88%
12:00 +8°C° 0.5 mm 4 mps 718 mmHg 87%
13:00 +8°C° 0.5 mm 4 mps 717 mmHg 86%
14:00 +8°C° 0.5 mm 4 mps 717 mmHg 87%
15:00 +8°C° 0.5 mm 4 mps 717 mmHg 87%
16:00 +8°C° 0.5 mm 4 mps 717 mmHg 87%
17:00 +8°C° 0.4 mm 3 mps 716 mmHg 90%
18:00 +8°C° 0.4 mm 3 mps 716 mmHg 92%
19:00 +7°C° 0.4 mm 3 mps 716 mmHg 95%
20:00 +7°C° 0.1 mm 2 mps 716 mmHg 95%
21:00 +7°C° 0.1 mm 2 mps 716 mmHg 96%
22:00 +6°C° 0.1 mm 2 mps 716 mmHg 96%
23:00 +6°C° 0 mm 2 mps 716 mmHg 97%

Tomorrow, 16 May, Sunday

Time Temperature Precipitation Wind Pressure Humidity
00:00 +5°C° 0 mm 2 mps 716 mmHg 97%
01:00 +5°C° 0 mm 2 mps 716 mmHg 97%
02:00 +4°C° 0 mm 2 mps 716 mmHg 97%
03:00 +4°C° 0 mm 2 mps 716 mmHg 97%
04:00 +4°C° 0 mm 2 mps 716 mmHg 97%
05:00 +4°C° 0 mm 3 mps 716 mmHg 95%
06:00 +5°C° 0 mm 3 mps 716 mmHg 94%
07:00 +7°C° 0 mm 3 mps 716 mmHg 92%
08:00 +7°C° 0.2 mm 4 mps 716 mmHg 86%
09:00 +8°C° 0.2 mm 4 mps 716 mmHg 81%
10:00 +10°C° 0.2 mm 4 mps 716 mmHg 75%
11:00 +10°C° 0.6 mm 4 mps 716 mmHg 79%
12:00 +10°C° 0.6 mm 4 mps 716 mmHg 84%
13:00 +8°C° 0.6 mm 4 mps 716 mmHg 89%
14:00 +10°C° 0.6 mm 4 mps 716 mmHg 88%
15:00 +10°C° 0.6 mm 3 mps 716 mmHg 87%
16:00 +10°C° 0.6 mm 3 mps 715 mmHg 87%
17:00 +9°C° 0.4 mm 3 mps 715 mmHg 88%
18:00 +9°C° 0.4 mm 3 mps 715 mmHg 90%
19:00 +9°C° 0.4 mm 2 mps 715 mmHg 92%
20:00 +7°C° 0 mm 2 mps 715 mmHg 93%
21:00 +6°C° 0 mm 2 mps 715 mmHg 95%
22:00 +5°C° 0 mm 2 mps 715 mmHg 96%
23:00 +5°C° 0 mm 2 mps 715 mmHg 97%

Day after tomorrow, 17 May, Monday

Time Temperature Precipitation Wind Pressure Humidity
00:00 +5°C° 0 mm 2 mps 715 mmHg 97%
01:00 +5°C° 0 mm 2 mps 715 mmHg 97%
02:00 +6°C° 0.7 mm 2 mps 715 mmHg 97%
03:00 +6°C° 0.7 mm 2 mps 715 mmHg 97%
04:00 +7°C° 0.7 mm 3 mps 715 mmHg 97%
05:00 +7°C° 0.4 mm 3 mps 715 mmHg 96%
06:00 +6°C° 0.4 mm 4 mps 715 mmHg 96%
07:00 +6°C° 0.4 mm 4 mps 715 mmHg 95%
08:00 +6°C° 1.1 mm 5 mps 715 mmHg 95%
09:00 +6°C° 1.1 mm 5 mps 716 mmHg 96%
10:00 +6°C° 1.1 mm 5 mps 716 mmHg 96%
11:00 +6°C° 0.9 mm 5 mps 716 mmHg 96%
12:00 +6°C° 0.9 mm 5 mps 717 mmHg 96%
13:00 +6°C° 0.9 mm 5 mps 717 mmHg 97%
14:00 +7°C° 0.3 mm 5 mps 717 mmHg 95%
15:00 +8°C° 0.3 mm 5 mps 717 mmHg 94%
16:00 +8°C° 0.3 mm 4 mps 718 mmHg 93%
17:00 +8°C° 0.6 mm 4 mps 718 mmHg 94%
18:00 +8°C° 0.6 mm 4 mps 718 mmHg 95%
19:00 +8°C° 0.6 mm 3 mps 718 mmHg 95%
20:00 +8°C° 0.3 mm 3 mps 718 mmHg 96%
21:00 +7°C° 0.3 mm 2 mps 719 mmHg 97%
22:00 +7°C° 0.3 mm 2 mps 719 mmHg 97%
23:00 +6°C° 0 mm 2 mps 719 mmHg 98%

18 May, Tuesday

Time Temperature Precipitation Wind Pressure Humidity
00:00 +6°C° 0 mm 2 mps 719 mmHg 98%
01:00 +5°C° 0 mm 2 mps 719 mmHg 98%
02:00 +5°C° 0.1 mm 2 mps 719 mmHg 98%
03:00 +6°C° 0.1 mm 2 mps 719 mmHg 98%
04:00 +6°C° 0.1 mm 2 mps 720 mmHg 98%
05:00 +6°C° 0.2 mm 2 mps 720 mmHg 98%
06:00 +6°C° 0.2 mm 2 mps 720 mmHg 98%
07:00 +7°C° 0.2 mm 2 mps 720 mmHg 98%
08:00 +7°C° 0.8 mm 2 mps 721 mmHg 97%
09:00 +7°C° 0.8 mm 2 mps 721 mmHg 97%
10:00 +7°C° 0.8 mm 2 mps 721 mmHg 97%
11:00 +8°C° 1 mm 2 mps 722 mmHg 97%
12:00 +8°C° 1 mm 2 mps 722 mmHg 96%
13:00 +8°C° 1 mm 3 mps 722 mmHg 96%
14:00 +9°C° 0.7 mm 3 mps 723 mmHg 94%
15:00 +8°C° 0.7 mm 4 mps 723 mmHg 91%
16:00 +10°C° 0.7 mm 4 mps 723 mmHg 89%
17:00 +8°C° 0.4 mm 4 mps 724 mmHg 89%
18:00 +9°C° 0.4 mm 3 mps 724 mmHg 89%
19:00 +8°C° 0.4 mm 3 mps 724 mmHg 89%
20:00 +7°C° 0 mm 2 mps 725 mmHg 90%
21:00 +6°C° 0 mm 2 mps 725 mmHg 92%
22:00 +5°C° 0 mm 1 mps 725 mmHg 93%
23:00 +5°C° 0.1 mm 1 mps 725 mmHg 94%

19 May, Wednesday

Time Temperature Precipitation Wind Pressure Humidity
00:00 +5°C° 0.1 mm 1 mps 726 mmHg 96%
01:00 +5°C° 0.1 mm 2 mps 726 mmHg 97%
02:00 +5°C° 0.7 mm 2 mps 726 mmHg 97%
03:00 +5°C° 0.7 mm 2 mps 726 mmHg 98%
04:00 +5°C° 0.7 mm 2 mps 725 mmHg 98%
05:00 +6°C° 0 mm 2 mps 726 mmHg 97%
06:00 +5°C° 0 mm 3 mps 726 mmHg 96%
07:00 +5°C° 0 mm 3 mps 726 mmHg 95%
08:00 +7°C° 0.1 mm 3 mps 726 mmHg 91%
09:00 +8°C° 0.1 mm 3 mps 726 mmHg 88%
10:00 +7°C° 0.1 mm 4 mps 727 mmHg 84%
11:00 +8°C° 0.6 mm 4 mps 727 mmHg 85%
12:00 +8°C° 0.6 mm 4 mps 726 mmHg 86%
13:00 +10°C° 0.6 mm 4 mps 726 mmHg 87%
14:00 +10°C° 0.7 mm 4 mps 726 mmHg 86%
15:00 +10°C° 0.7 mm 4 mps 726 mmHg 85%
16:00 +11°C° 0.7 mm 4 mps 726 mmHg 83%
17:00 +10°C° 0.6 mm 4 mps 726 mmHg 86%
18:00 +9°C° 0.6 mm 3 mps 727 mmHg 89%
19:00 +8°C° 0.6 mm 3 mps 727 mmHg 91%
20:00 +7°C° 0.1 mm 2 mps 727 mmHg 93%
21:00 +6°C° 0.1 mm 2 mps 727 mmHg 95%
22:00 +5°C° 0.1 mm 2 mps 727 mmHg 97%
23:00 +5°C° 0 mm 2 mps 727 mmHg 97%

20 May, Thursday

Time Temperature Precipitation Wind Pressure Humidity
00:00 +5°C° 0 mm 2 mps 727 mmHg 98%
01:00 +4°C° 0 mm 2 mps 727 mmHg 98%
02:00 +5°C° 0 mm 2 mps 727 mmHg 98%
03:00 +5°C° 0 mm 2 mps 727 mmHg 98%
04:00 +6°C° 0 mm 2 mps 727 mmHg 98%
05:00 +6°C° 0 mm 2 mps 727 mmHg 97%
06:00 +5°C° 0 mm 3 mps 726 mmHg 96%
07:00 +7°C° 0 mm 3 mps 726 mmHg 95%
08:00 +8°C° 0 mm 3 mps 726 mmHg 85%
09:00 +8°C° 0 mm 4 mps 726 mmHg 76%
10:00 +10°C° 0 mm 4 mps 726 mmHg 66%
11:00 +10°C° 0 mm 4 mps 725 mmHg 65%
12:00 +11°C° 0 mm 4 mps 725 mmHg 64%
13:00 +12°C° 0 mm 4 mps 724 mmHg 62%
14:00 +10°C° 0.5 mm 4 mps 724 mmHg 73%
15:00 +8°C° 0.5 mm 4 mps 723 mmHg 84%
16:00 +6°C° 0.5 mm 4 mps 722 mmHg 95%
17:00 +7°C° 0.4 mm 4 mps 722 mmHg 95%
18:00 +7°C° 0.4 mm 4 mps 721 mmHg 96%
19:00 +7°C° 0.4 mm 4 mps 721 mmHg 96%
20:00 +7°C° 1.4 mm 4 mps 720 mmHg 95%
21:00 +6°C° 1.4 mm 4 mps 720 mmHg 94%
22:00 +6°C° 1.4 mm 4 mps 720 mmHg 93%
23:00 +6°C° 0.7 mm 5 mps 720 mmHg 94%
Show more

We Need Your Consent

Meteoprog and our Service Providers may store and access personal data such as cookies, device identifiers or other similar technologies on your device and process such data to personalise content and ads, as well as provide social media features and to analyse the traffic.

  • Store and/or access information on your device

    Cookies, device identifiers or other information can be stored or accessed on your device for the purposes indicated above.

  • Personalised ads and content, ad and content measurement, audience insights, and products development

    Ads and content can be personalised based on a profile. More data can be added to better personalise ads and content. Ad and content performance can be measured. Insights about the audience who saw the ads and content can be derived. Such data can be used to develop or improve user’s experience, systems and software.

By clicking ‘I Agree’ you will allow the use of indicated cookies, device identifiers, web beacons or other similar technologies. Your settings can be changed in the browser on your device.

For certain purposes, legitimate interests may be relied on, rather than consent. You can read more about this in our Privacy and Cookie Policy.